Total_Precipitation_Accumulation
0.01 0.02 0.03 0.04 0.04 0.06 0.09 0.18 0.24 0.26 0.31 0.35 0.44 0.52 0.83 1.07 1.17 1.30 1.46 1.70 1.88 2.04 2.11 2.27 2.57 2.79 2.94 3.10 3.34 3.65 4.07 4.41 4.53 4.35 4.27 4.20 3.90 3.58 3.21 2.95 2.91 3.02 2.92 3.01
0.03 0.04 0.03 0.04 0.04 0.08 0.11 0.20 0.27 0.31 0.35 0.34 0.49 0.60 0.85 1.30 1.45 1.41 1.46 1.48 1.53 1.97 2.17 2.35 2.60 2.74 2.73 2.93 3.21 3.63 4.09 4.41 4.31 4.42 4.63 4.57 4.34 3.65 3.28 3.11 3.05 2.98 2.90 2.89
0.04 0.04 0.03 0.04 0.06 0.09 0.13 0.17 0.24 0.30 0.40 0.39 0.50 0.90 1.11 1.40 1.55 1.43 1.39 1.40 1.35 1.54 1.84 1.97 2.13 2.31 2.54 2.95 3.36 3.64 3.97 4.14 4.17 4.38 4.52 4.22 4.01 3.52 3.38 3.37 3.20 3.05 3.03 3.01
0.03 0.03 0.03 0.06 0.08 0.09 0.13 0.13 0.16 0.25 0.41 0.57 0.63 1.24 1.54 1.73 1.61 1.35 1.37 1.43 1.52 1.64 1.71 1.83 1.88 2.16 2.51 2.91 3.48 3.88 3.92 4.01 3.89 4.01 4.12 3.95 3.60 3.35 3.25 3.24 3.01 2.90 2.84 2.83
0.06 0.04 0.04 0.05 0.07 0.08 0.11 0.10 0.13 0.22 0.35 0.57 0.71 1.09 1.57 1.67 1.56 1.27 1.18 1.37 1.60 1.58 1.63 1.86 1.80 1.98 2.23 2.63 3.03 3.43 3.78 3.85 3.67 3.61 3.65 3.78 3.62 3.35 3.13 3.03 2.92 2.85 2.83 2.67
0.09 0.07 0.06 0.06 0.07 0.08 0.09 0.11 0.19 0.31 0.52 0.90 0.71 0.83 1.25 1.51 1.41 1.16 1.16 1.29 1.47 1.64 1.62 1.77 2.02 2.06 2.17 2.45 2.79 3.06 3.30 3.29 3.22 3.17 3.21 3.32 3.39 3.35 3.12 2.90 2.92 2.88 2.74 2.59
0.17 0.17 0.12 0.10 0.09 0.08 0.09 0.19 0.56 0.91 1.23 1.10 0.73 0.82 1.18 1.14 1.00 0.91 0.97 1.22 1.50 1.76 1.76 1.79 1.97 2.06 2.14 2.26 2.41 2.55 2.66 2.70 2.66 2.70 2.67 2.67 2.80 2.86 2.73 2.67 2.73 2.74 2.62 2.49
0.25 0.24 0.18 0.15 0.13 0.11 0.12 0.22 0.61 0.83 1.00 0.95 0.88 1.10 1.17 0.93 0.81 0.82 0.90 1.08 1.37 1.53 1.56 1.65 1.74 1.66 1.67 1.74 1.87 2.02 2.13 2.15 2.10 2.18 2.26 2.27 2.47 2.47 2.46 2.59 2.52 2.55 2.48 2.44
0.14 0.16 0.15 0.15 0.16 0.16 0.20 0.26 0.29 0.48 0.60 0.97 1.18 1.29 1.19 0.87 1.00 0.99 1.07 1.12 1.17 1.21 1.24 1.24 1.26 1.33 1.46 1.51 1.54 1.62 1.80 1.82 1.75 1.80 1.96 2.02 2.08 2.19 2.29 2.37 2.29 2.19 2.22 2.11
0.08 0.12 0.14 0.12 0.13 0.15 0.22 0.34 0.47 0.70 0.94 1.11 1.24 1.51 1.69 1.49 1.40 1.27 1.38 1.59 1.35 1.08 1.09 1.11 1.08 1.13 1.19 1.23 1.33 1.49 1.62 1.77 1.77 1.72 1.76 1.70 1.79 1.89 2.08 2.15 2.05 2.07 2.15 2.10
0.08 0.11 0.14 0.16 0.16 0.21 0.33 0.42 0.52 0.67 0.78 1.05 1.38 1.56 1.36 1.51 1.46 1.39 1.37 1.41 1.29 0.96 0.85 0.93 0.91 0.95 1.00 1.05 1.16 1.32 1.61 1.77 1.70 1.54 1.56 1.63 1.60 1.70 1.84 1.89 1.84 1.94 2.04 2.17
0.11 0.12 0.16 0.20 0.20 0.19 0.28 0.42 0.53 0.70 0.78 0.88 1.12 1.37 1.00 1.14 1.11 1.08 1.14 1.00 0.91 0.83 0.69 0.79 0.84 0.82 0.85 0.90 0.99 1.14 1.34 1.51 1.52 1.48 1.50 1.60 1.68 1.69 1.65 1.65 1.68 1.75 1.78 1.84
0.13 0.17 0.28 0.48 0.45 0.30 0.26 0.29 0.36 0.45 0.59 0.68 0.99 1.29 0.92 0.90 1.00 0.97 0.94 0.94 0.77 0.83 0.77 0.75 0.84 0.83 0.78 0.77 0.90 1.08 1.12 1.32 1.50 1.52 1.50 1.59 1.58 1.55 1.60 1.74 1.80 1.78 1.79 1.80
0.14 0.16 0.24 0.50 0.57 0.45 0.35 0.34 0.35 0.38 0.52 0.56 0.66 0.99 1.00 0.99 0.98 1.01 0.93 0.82 0.70 0.73 0.81 0.76 0.76 0.75 0.64 0.63 0.74 0.93 1.02 1.15 1.32 1.47 1.56 1.68 1.69 1.70 1.80 1.89 1.95 1.91 1.84 1.85
0.14 0.14 0.17 0.23 0.31 0.34 0.31 0.31 0.33 0.35 0.40 0.51 0.59 0.76 0.92 0.93 0.94 1.04 0.94 0.81 0.78 0.69 0.70 0.73 0.68 0.59 0.57 0.58 0.64 0.81 0.95 1.07 1.20 1.45 1.63 1.75 1.82 1.81 1.83 1.84 1.91 1.91 1.79 1.74
0.18 0.20 0.22 0.29 0.33 0.36 0.35 0.34 0.30 0.29 0.27 0.32 0.50 0.73 0.74 0.73 0.78 0.90 0.90 0.95 0.94 0.83 0.68 0.63 0.65 0.64 0.63 0.56 0.57 0.63 0.79 0.95 1.10 1.31 1.47 1.56 1.68 1.79 1.77 1.73 1.78 1.77 1.79 1.81
0.25 0.28 0.34 0.41 0.46 0.52 0.55 0.44 0.42 0.40 0.36 0.40 0.63 0.77 0.63 0.64 0.69 0.71 0.72 0.78 0.83 0.82 0.88 0.88 0.80 0.79 0.69 0.58 0.60 0.63 0.69 0.86 1.07 1.22 1.30 1.40 1.53 1.63 1.66 1.61 1.69 1.78 1.80 1.76
0.30 0.36 0.40 0.43 0.61 0.85 0.65 0.41 0.35 0.35 0.39 0.38 0.49 0.56 0.54 0.57 0.56 0.61 0.68 0.65 0.64 0.57 0.63 0.80 0.87 0.89 0.86 0.76 0.77 0.80 0.82 0.93 1.10 1.26 1.35 1.41 1.52 1.56 1.58 1.58 1.56 1.62 1.63 1.61
0.27 0.41 0.49 0.54 0.66 0.70 0.60 0.49 0.48 0.49 0.52 0.38 0.43 0.49 0.52 0.59 0.62 0.70 0.59 0.51 0.61 0.56 0.63 0.70 0.78 0.88 1.02 1.04 1.01 1.02 1.09 1.15 1.16 1.23 1.35 1.47 1.58 1.63 1.63 1.65 1.62 1.64 1.63 1.59
0.31 0.39 0.53 0.56 0.81 0.89 0.72 0.56 0.59 0.66 0.93 0.63 0.56 0.61 0.64 0.65 0.89 0.96 0.63 0.55 0.74 0.64 0.62 0.70 0.73 0.79 0.97 1.06 1.04 1.05 1.09 1.17 1.17 1.25 1.37 1.50 1.59 1.70 1.68 1.74 1.78 1.75 1.67 1.60
0.59 0.61 0.62 0.62 0.84 0.96 0.67 0.53 0.63 1.11 1.27 0.77 0.68 0.69 0.74 0.77 0.80 0.75 0.62 0.65 0.72 0.64 0.61 0.59 0.67 0.89 0.99 1.02 1.09 1.15 1.14 1.22 1.26 1.39 1.47 1.59 1.67 1.72 1.71 1.78 1.84 1.82 1.77 1.78
0.84 0.83 0.78 0.83 1.08 1.18 0.71 0.63 0.90 1.06 0.81 0.76 0.74 0.67 0.71 0.72 0.65 0.56 0.55 0.58 0.60 0.64 0.64 0.73 0.87 0.99 1.03 1.07 1.24 1.37 1.42 1.36 1.47 1.56 1.54 1.63 1.76 1.62 1.62 1.83 1.90 1.91 1.94 1.92
0.93 0.95 0.98 1.04 1.15 0.99 0.88 0.93 1.00 0.85 0.85 0.78 0.70 0.67 0.62 0.66 0.65 0.59 0.57 0.53 0.58 0.70 0.70 0.79 0.93 0.98 1.02 1.09 1.26 1.51 1.54 1.48 1.50 1.59 1.63 1.64 1.71 1.84 1.91 1.96 2.00 1.96 1.90 1.90
1.01 0.89 1.05 1.19 1.16 1.05 1.03 1.02 1.01 0.92 0.90 0.81 0.72 0.73 0.67 0.71 0.76 0.70 0.64 0.65 0.61 0.65 0.70 0.76 0.91 0.96 1.09 1.19 1.35 1.62 1.67 1.63 1.65 1.70 1.78 1.79 1.77 1.83 2.00 2.16 2.16 2.07 1.91 1.93
1.11 1.09 1.24 1.43 1.36 1.18 1.04 0.90 0.85 0.80 0.76 0.73 0.75 0.76 0.76 0.80 0.83 0.78 0.81 0.83 0.75 0.71 0.72 0.81 0.99 1.14 1.19 1.25 1.34 1.50 1.68 1.81 1.88 1.89 1.87 1.89 1.92 1.96 2.05 2.05 2.01 1.99 1.92 1.84
1.07 1.21 1.48 1.63 1.33 1.17 1.10 0.91 0.89 0.79 0.72 0.72 0.72 0.71 0.80 0.82 0.82 0.80 0.81 0.85 0.81 0.85 0.96 0.98 1.02 1.16 1.25 1.30 1.39 1.51 1.73 2.01 2.21 2.17 2.07 2.05 2.04 2.06 2.03 2.04 1.87 1.71 1.63 1.57